Tracking 25963 objects as of 12-Aug-2022
HD Live streaming from Space Station
objects crossing your sky now

AMOS 17

Track AMOS 17 now!
AMOS 17 is classified as:


NORAD ID: 44479
Int'l Code: 2019-050A
Perigee: 35,783.5 km
Apogee: 35,805.3 km
Inclination: 0.0 °
Period: 1,436.1 minutes
Semi major axis: 42165 km
RCS: Unknown
Launch date: August 6, 2019
Source: Israel (ISRA)
Launch site: AIR FORCE EASTERN TEST RANGE (AFETR)
aabbcc
Your satellite tracking list
Your tracking list is empty




NASA's NSSDC Master Catalog

Two Line Element Set (TLE):
1 44479U 19050A   22224.18693764  .00000091  00000-0  00000+0 0  9998
2 44479   0.0168 106.3174 0002584  46.9529 251.6331  1.00269435 11093
Source of the keplerian elements: AFSPC